TimeCDT,TemperatureF,Dew PointF,Humidity,Sea Level PressureIn,VisibilityMPH,Wind Direction,Wind SpeedMPH,Gust SpeedMPH,PrecipitationIn,Events,Conditions,WindDirDegrees,DateUTC
12:52 AM,73.0,69.1,87,30.07,7.0,SSE,4.6,-,N/A,,Clear,160,2013-06-24 05:52:00
1:52 AM,71.1,69.1,93,30.07,5.0,SSE,4.6,-,N/A,,Clear,150,2013-06-24 06:52:00
2:52 AM,71.1,68.0,90,30.07,6.0,Calm,Calm,-,N/A,,Clear,0,2013-06-24 07:52:00
3:52 AM,73.0,68.0,84,30.07,8.0,South,3.5,-,N/A,,Clear,170,2013-06-24 08:52:00
4:52 AM,73.0,66.9,81,30.09,10.0,South,4.6,-,N/A,,Clear,170,2013-06-24 09:52:00
5:52 AM,70.0,68.0,93,30.10,5.0,SSE,4.6,-,N/A,,Clear,150,2013-06-24 10:52:00
6:52 AM,73.0,69.1,87,30.12,5.0,SE,3.5,-,N/A,,Clear,140,2013-06-24 11:52:00
7:52 AM,75.9,70.0,82,30.13,10.0,Calm,Calm,-,N/A,,Partly Cloudy,0,2013-06-24 12:52:00
8:52 AM,77.0,70.0,79,30.15,9.0,SSW,6.9,-,N/A,,Partly Cloudy,200,2013-06-24 13:52:00
9:52 AM,79.0,71.1,77,30.16,10.0,Variable,5.8,-,N/A,,Mostly Cloudy,0,2013-06-24 14:52:00
10:52 AM,80.1,71.1,74,30.15,10.0,WSW,3.5,-,N/A,,Mostly Cloudy,240,2013-06-24 15:52:00
11:52 AM,81.0,72.0,74,30.14,10.0,SW,5.8,-,N/A,,Mostly Cloudy,220,2013-06-24 16:52:00
12:52 PM,82.9,72.0,69,30.11,10.0,SSW,5.8,-,N/A,,Clear,210,2013-06-24 17:52:00
1:52 PM,82.0,70.0,67,30.10,10.0,NNE,9.2,-,N/A,,Overcast,30,2013-06-24 18:52:00
2:32 PM,84.2,71.6,66,30.10,10.0,NE,5.8,-,N/A,Thunderstorm,Clear,50,2013-06-24 19:32:00
2:52 PM,82.9,70.0,65,30.09,10.0,North,3.5,-,N/A,Thunderstorm,Scattered Clouds,350,2013-06-24 19:52:00
3:02 PM,82.4,69.8,66,30.12,10.0,NNW,3.5,-,N/A,,Mostly Cloudy,330,2013-06-24 20:02:00
3:52 PM,82.0,71.1,69,30.08,10.0,NNE,6.9,-,N/A,,Partly Cloudy,30,2013-06-24 20:52:00
4:52 PM,84.9,70.0,61,30.06,10.0,North,3.5,-,N/A,,Clear,10,2013-06-24 21:52:00
5:52 PM,84.9,70.0,61,30.04,10.0,South,4.6,-,N/A,,Clear,190,2013-06-24 22:52:00
6:52 PM,84.0,70.0,63,30.05,10.0,ESE,8.1,-,N/A,,Clear,120,2013-06-24 23:52:00
7:52 PM,81.0,71.1,72,30.06,10.0,SE,5.8,-,N/A,,Clear,140,2013-06-25 00:52:00
8:52 PM,77.0,70.0,79,30.06,10.0,SE,5.8,-,N/A,,Clear,140,2013-06-25 01:52:00
9:52 PM,75.9,69.1,79,30.06,10.0,SSE,3.5,-,N/A,,Clear,160,2013-06-25 02:52:00
10:52 PM,73.0,69.1,87,30.07,10.0,Calm,Calm,-,N/A,,Clear,0,2013-06-25 03:52:00
11:52 PM,73.0,69.1,87,30.07,10.0,SE,4.6,-,N/A,,Clear,140,2013-06-25 04:52:00